RH
20 23 28 27 21 18 17 15 15 12 10 11 9 9 10 11 13 14 14 13 12 14 14 13 14 13 12 11 12 15 19 22 22 24 28 33 36 39 41 40 42 45 44 45 49 51 53 54 57 60 59 61 64 65 68 71 72 73 73 73 75 75 72 72 74 73 72 69 68 68 67 67 70 74 74 71 68 64 62 64 71 80 80 79 81 81
19 22 23 20 16 15 15 15 13 12 10 11 11 9 9 9 10 11 14 13 12 14 16 14 14 14 12 12 10 12 20 23 22 24 28 32 36 38 40 40 41 43 41 43 48 50 52 53 55 58 59 61 63 65 68 71 72 73 73 74 76 76 75 73 73 73 71 70 68 67 67 66 66 71 73 70 68 65 63 68 78 81 78 79 81 82
20 21 18 15 14 13 14 13 13 13 11 11 10 9 10 10 9 10 12 13 13 15 16 15 15 14 12 12 10 12 19 22 20 21 25 31 36 37 40 41 41 43 44 44 47 48 49 52 54 58 61 62 63 64 66 69 72 74 74 75 77 78 77 74 74 75 73 73 72 70 70 67 62 65 69 67 67 67 64 68 81 83 78 80 81 82
21 17 13 12 12 12 13 13 14 14 12 12 10 8 10 9 10 12 12 13 13 13 15 14 14 13 12 12 11 11 15 19 18 19 22 27 34 36 37 39 41 44 47 47 47 46 47 51 54 58 61 62 62 62 65 67 69 73 74 74 77 79 78 77 77 78 76 77 78 75 72 69 63 62 68 70 68 70 68 67 77 82 80 80 79 80
17 13 11 11 11 13 14 14 14 13 12 10 9 8 9 8 9 10 11 13 12 13 13 14 16 16 13 14 12 10 14 18 19 21 24 26 31 34 35 37 40 43 46 48 48 46 47 50 53 57 61 61 61 62 64 65 66 69 72 74 76 78 78 78 79 82 80 79 79 78 76 73 70 68 71 74 70 70 72 68 70 79 81 79 77 78
14 11 11 12 12 14 15 14 12 11 10 9 9 8 7 7 7 7 9 11 13 15 13 14 20 20 14 14 12 12 18 21 22 25 28 29 33 35 37 38 40 41 44 47 47 46 47 49 52 57 61 60 59 60 62 63 64 66 68 73 76 77 78 78 80 83 82 80 79 79 78 75 74 72 70 73 70 67 70 66 63 72 79 78 76 77
12 11 13 13 13 15 15 12 10 10 10 9 8 7 7 7 7 7 9 10 14 15 13 13 20 22 16 14 12 15 22 25 27 31 30 31 35 37 37 38 40 40 42 45 46 45 46 48 51 55 59 59 57 58 59 60 63 66 68 73 76 77 78 78 80 84 84 82 82 80 77 72 70 69 67 70 70 65 66 65 61 66 74 78 74 73
12 12 15 15 14 15 14 11 10 11 11 9 7 7 8 8 8 9 9 10 11 12 13 13 16 21 19 15 14 16 21 24 28 32 32 32 35 37 37 36 38 39 40 43 46 46 46 47 50 52 57 58 55 55 58 59 63 68 71 74 77 78 78 79 81 84 84 82 82 81 76 70 67 65 66 71 72 67 67 68 65 64 72 80 76 70
12 13 15 16 15 15 13 11 10 10 11 9 7 8 10 10 9 8 8 9 10 12 16 15 14 21 22 17 14 14 18 22 24 27 30 32 34 36 36 35 36 38 38 40 43 45 45 46 48 50 54 56 54 55 57 60 63 68 73 76 79 80 80 81 82 85 86 82 81 80 76 72 69 66 65 69 73 72 72 73 71 69 72 79 81 73
11 13 13 15 15 13 12 11 9 10 12 9 7 11 11 10 9 9 9 9 11 14 18 15 14 20 21 16 14 14 17 20 18 18 23 28 31 34 35 33 34 36 38 38 39 42 44 45 47 48 51 54 53 54 57 60 63 67 73 77 80 82 81 82 84 87 87 84 81 80 77 75 72 71 68 68 73 76 77 77 76 75 74 76 80 77
10 11 12 14 14 12 11 11 10 10 11 9 8 12 11 10 10 10 10 10 14 18 16 14 13 16 19 16 13 14 16 16 15 13 16 22 27 31 32 31 32 35 38 38 37 39 43 45 46 47 48 52 53 54 56 59 62 65 70 76 81 83 82 83 85 86 86 85 83 80 80 78 76 75 74 71 73 78 80 79 76 76 77 75 74 73
9 11 12 12 11 10 10 11 11 11 11 10 10 11 12 11 12 12 13 14 18 19 15 12 11 13 17 16 12 12 12 13 14 12 12 18 25 29 30 29 30 33 36 38 38 38 41 45 46 47 48 51 54 55 56 57 60 64 69 75 80 82 82 82 83 84 84 84 83 82 81 81 80 79 78 75 74 77 80 79 75 75 77 76 73 70
10 11 11 11 10 10 11 11 12 12 11 11 11 13 14 15 17 19 18 18 19 17 13 11 11 12 14 13 11 10 10 10 12 11 10 13 19 25 28 28 29 31 33 36 38 38 40 45 46 47 49 52 55 56 56 56 58 62 67 73 78 80 80 79 80 82 80 80 82 84 83 82 82 82 81 78 75 76 78 77 75 74 76 77 75 72
10 10 10 11 11 10 10 11 14 14 12 12 12 13 15 17 23 25 21 19 19 16 11 10 12 14 13 11 10 10 9 9 10 11 10 9 13 20 25 26 26 29 31 35 38 37 39 44 46 47 49 52 55 56 57 56 57 61 66 72 76 79 80 80 80 79 78 79 80 82 83 83 84 84 83 81 76 75 76 76 75 72 71 73 74 71
13 13 11 11 11 11 10 9 12 12 11 11 10 11 14 15 20 22 19 17 16 14 12 12 15 15 13 11 10 8 8 9 9 9 9 9 10 13 19 22 24 27 30 33 36 37 39 42 45 47 49 53 55 55 56 57 58 61 65 70 75 78 81 83 82 78 77 79 78 78 81 83 83 83 82 82 78 75 76 75 75 73 70 69 69 70
12 12 9 9 10 10 10 8 8 10 12 11 8 10 13 12 14 16 15 13 13 13 13 13 15 12 10 11 11 9 8 8 8 8 7 9 9 9 14 18 21 24 26 30 34 37 38 41 44 46 48 51 54 55 55 56 59 62 64 69 73 76 79 82 82 80 77 76 76 78 80 81 81 80 80 82 81 78 77 76 76 75 72 68 67 70
13 13 8 9 10 9 10 9 8 10 12 11 10 12 11 9 10 14 15 14 14 16 15 14 15 11 9 11 9 8 9 8 8 8 7 8 9 10 12 16 19 21 24 28 32 36 38 40 43 45 46 48 51 54 55 56 60 62 63 67 72 75 76 79 81 80 77 76 78 79 79 81 80 79 80 81 80 78 78 78 78 75 74 72 70 70
12 13 10 10 11 9 8 8 8 8 9 10 12 11 9 9 10 12 16 16 16 16 13 10 12 12 12 12 9 8 8 8 8 8 7 9 10 12 14 18 20 20 23 27 31 35 37 38 41 43 44 45 48 51 54 58 61 63 63 64 69 73 74 76 78 78 78 79 80 80 81 81 79 79 81 79 78 79 77 78 79 76 74 74 73 71
11 14 13 11 10 9 8 9 9 8 7 9 10 8 9 13 14 15 18 18 15 15 13 9 9 9 11 12 11 10 8 7 8 8 8 8 9 11 13 16 20 21 22 26 29 33 36 36 38 40 41 41 45 49 53 57 59 60 62 62 63 68 71 71 73 75 77 78 78 79 81 81 79 81 82 78 76 78 77 76 77 75 73 73 75 75
12 15 14 11 9 9 10 10 11 11 9 8 9 8 9 12 13 14 15 14 13 15 14 11 9 9 9 9 9 10 10 8 8 8 9 8 8 10 11 12 16 21 22 24 26 30 33 34 34 36 38 37 40 46 49 52 55 55 57 59 60 63 67 68 69 72 75 75 75 77 79 81 81 82 83 80 77 78 77 76 75 74 72 73 75 76
14 15 16 13 9 10 12 11 10 11 10 10 11 11 10 10 11 12 12 11 11 14 15 13 11 10 8 7 6 7 9 8 8 8 8 8 7 7 9 9 12 19 23 23 24 26 29 31 30 32 36 35 36 42 45 46 49 50 51 55 57 59 62 63 65 68 72 72 72 75 77 79 81 82 81 79 78 78 77 76 75 74 72 73 75 75
18 16 15 14 11 12 12 10 9 9 9 10 10 11 11 10 11 14 16 13 9 11 12 12 13 10 6 7 7 6 6 6 7 7 7 8 7 7 8 8 10 18 22 23 23 23 25 28 29 29 32 34 33 36 40 41 43 45 47 50 52 54 55 57 59 63 69 71 71 73 75 76 77 80 80 78 78 77 76 76 76 75 73 72 74 75
25 22 17 15 13 11 10 9 9 8 8 9 9 9 10 10 11 14 17 16 13 12 10 10 13 11 7 8 7 6 6 5 5 6 7 7 7 7 7 6 10 19 23 22 21 21 22 26 29 29 31 33 33 33 36 38 39 41 43 45 47 48 49 50 53 60 66 70 70 71 73 73 73 75 76 75 75 73 72 73 75 76 75 71 71 74
27 25 21 17 14 10 9 8 9 8 8 10 9 8 9 9 9 11 12 13 14 13 10 10 14 11 8 9 8 7 6 5 5 6 6 6 6 7 7 9 15 23 26 22 20 21 21 23 27 31 32 35 36 35 35 36 37 38 39 41 42 44 45 46 48 55 63 67 68 69 71 72 71 71 72 71 70 69 67 68 71 74 75 72 69 71
24 25 22 22 22 19 15 13 12 11 10 10 10 9 9 9 8 9 10 11 15 15 12 12 13 11 11 13 13 10 7 6 6 5 5 7 8 7 8 14 22 28 29 26 23 22 21 23 30 34 36 38 39 36 35 36 36 36 37 38 38 39 42 44 46 49 57 62 63 64 67 69 68 67 68 67 65 64 64 63 65 68 72 72 69 68
28 29 24 24 27 24 23 21 18 14 12 10 11 9 9 9 8 10 11 12 17 19 15 13 12 11 12 14 13 9 8 8 7 7 6 6 8 11 15 21 26 31 32 30 28 27 25 26 31 36 40 41 39 37 37 37 37 35 35 36 36 36 39 42 44 46 52 57 59 60 63 66 65 63 64 65 62 61 60 60 60 63 67 70 69 68
31 33 33 39 36 28 30 30 23 18 13 10 11 11 11 10 9 10 12 14 17 18 16 15 14 13 13 12 10 9 8 9 8 8 6 7 10 15 19 24 26 28 32 31 30 31 32 32 33 38 43 41 36 36 38 37 37 36 36 36 35 35 37 41 43 46 49 52 55 58 60 62 64 63 61 62 62 60 59 58 58 58 62 66 68 68
33 32 35 44 40 29 28 27 21 19 17 12 12 12 12 11 10 11 13 13 15 17 16 16 16 16 13 10 10 10 10 9 9 8 7 9 13 13 16 20 19 18 25 30 32 35 37 38 38 40 43 40 36 36 37 37 36 36 36 37 36 35 36 39 43 45 47 50 54 57 58 59 63 64 63 62 64 63 61 60 59 58 59 63 66 67
32 30 29 32 31 24 21 20 19 21 21 18 17 15 15 14 14 15 15 13 14 18 18 17 19 19 14 10 10 10 9 9 9 8 6 8 10 10 11 15 12 8 12 22 33 40 40 42 43 42 42 39 35 35 35 35 36 36 37 38 37 36 35 38 42 45 47 50 54 57 59 60 62 66 66 65 65 67 65 63 63 62 61 63 67 68
30 34 31 26 25 24 21 19 19 21 22 22 20 19 18 17 16 16 16 13 15 20 20 19 22 21 15 12 11 9 9 9 8 8 8 8 9 9 9 9 8 6 6 11 25 38 41 42 44 44 44 42 37 35 34 35 36 37 37 37 38 37 36 37 42 45 47 50 54 58 60 62 64 66 69 69 68 70 70 67 66 66 65 66 69 71
28 34 31 26 26 26 21 19 19 20 22 21 20 19 18 18 18 17 17 16 18 21 19 18 22 22 16 14 13 12 11 11 10 10 10 9 9 9 9 8 7 8 7 7 17 30 37 40 44 45 45 45 43 39 36 36 37 37 36 35 37 38 37 37 42 46 48 50 54 58 62 65 67 68 72 73 72 73 74 72 70 70 70 70 71 74
26 29 27 26 30 27 21 20 20 19 19 20 20 19 18 18 17 16 16 17 18 20 20 20 22 19 15 12 12 12 12 12 11 10 9 10 10 9 9 9 8 10 9 8 16 27 32 33 38 44 43 39 39 39 38 38 38 37 35 34 35 37 37 37 40 46 50 51 55 60 64 67 70 71 73 75 75 75 76 76 74 74 75 74 74 76
25 27 26 26 29 27 21 20 19 19 24 25 21 18 18 17 17 17 16 16 16 17 19 20 18 15 14 13 13 13 13 11 11 10 10 12 12 11 11 10 10 11 8 8 17 27 28 25 27 34 36 32 31 33 35 37 37 36 35 34 35 36 37 36 38 45 52 54 57 62 67 70 71 72 74 76 77 77 79 79 77 76 77 76 76 78
27 28 26 26 30 29 22 20 22 25 29 27 20 17 16 16 17 16 14 14 15 15 16 16 15 14 14 15 15 15 15 13 13 12 11 12 14 15 14 12 11 13 12 12 14 18 23 28 29 29 31 31 28 28 30 33 36 37 36 35 35 36 38 38 38 44 53 58 59 64 70 72 72 73 75 77 78 79 80 80 79 78 77 76 77 78
30 30 27 27 30 28 24 25 30 33 30 24 22 22 19 18 18 19 21 21 19 18 17 16 17 17 16 17 16 16 15 14 13 12 12 13 14 16 16 15 14 14 15 17 19 22 31 41 41 36 33 31 28 27 28 30 32 34 35 35 35 36 39 41 41 44 52 58 61 65 70 72 72 73 74 77 78 79 80 79 79 79 77 74 75 75
29 28 26 27 29 28 28 30 34 33 26 21 23 26 26 27 28 28 28 25 24 27 30 28 26 25 23 23 23 23 21 19 17 16 15 15 15 15 16 14 12 13 18 25 32 40 48 51 48 44 42 39 33 29 28 28 29 31 32 33 35 37 40 44 44 45 50 58 61 64 68 70 71 72 72 74 77 78 78 78 78 79 77 74 73 72
27 28 28 28 29 30 29 28 28 27 25 22 25 28 29 31 34 34 30 27 32 40 44 44 42 39 36 34 36 37 37 33 26 19 13 10 10 13 15 15 17 24 32 37 42 48 55 58 57 54 53 49 42 33 28 27 27 29 30 31 34 38 41 45 47 48 51 58 61 61 65 68 69 70 70 72 75 77 76 77 78 79 79 76 73 70
26 29 31 29 27 27 29 29 28 29 29 25 24 28 31 31 34 37 34 34 43 48 48 50 51 49 47 46 47 50 48 38 26 18 17 19 17 16 21 26 30 35 39 44 48 50 53 58 60 59 58 55 47 37 31 29 28 29 31 32 34 39 43 46 48 51 54 57 58 58 62 65 66 68 70 71 74 75 75 76 76 77 78 77 73 70
28 28 31 32 27 26 29 31 30 30 29 27 26 30 31 27 31 37 33 35 49 52 49 51 52 50 52 54 55 58 52 35 19 20 34 42 37 35 40 42 42 43 46 50 53 53 56 63 66 63 55 50 45 39 34 32 31 31 34 34 34 38 44 46 46 49 52 54 55 57 60 63 65 67 69 71 72 73 73 74 73 74 76 75 72 70
32 31 34 36 30 28 30 30 27 24 25 30 31 31 30 27 32 40 38 41 53 55 51 53 53 51 55 56 59 63 56 39 29 33 44 47 43 45 50 51 52 55 54 52 55 60 63 67 69 60 48 47 51 45 39 37 35 34 36 37 35 36 41 45 46 46 49 51 52 56 60 62 64 67 68 70 71 71 71 71 70 70 72 72 69 69
39 36 36 35 30 29 30 30 28 23 22 26 25 24 28 27 27 34 42 48 54 53 51 54 53 52 56 57 59 62 57 50 47 46 45 44 46 51 53 53 56 58 56 56 62 68 66 63 64 59 52 58 62 53 45 42 38 38 42 42 40 38 39 43 47 48 50 52 52 54 59 62 64 67 68 69 71 70 68 67 68 69 70 69 67 67
46 41 38 36 32 28 27 28 27 23 21 24 21 17 20 23 27 41 54 57 55 52 52 54 53 55 58 58 58 60 57 54 52 48 45 48 52 57 57 57 58 59 60 63 67 68 64 62 65 64 59 61 60 52 48 47 44 45 46 45 44 41 38 41 46 50 54 55 53 53 58 63 65 67 69 69 70 70 68 66 67 69 69 67 66 67
49 48 42 36 32 32 31 31 31 29 30 34 32 27 27 33 47 63 63 53 49 50 52 54 55 56 58 59 59 59 57 56 54 51 52 54 55 58 61 62 62 62 62 63 65 65 65 65 67 68 66 64 62 54 47 46 48 50 50 52 54 50 44 44 49 54 58 59 57 55 58 64 66 68 69 70 70 70 70 69 68 68 70 70 69 69
47 51 49 42 39 40 37 31 34 40 41 39 38 40 44 49 59 68 65 54 49 49 52 56 57 56 58 62 64 64 63 63 60 57 59 59 57 58 60 60 61 62 61 62 67 70 71 71 71 71 70 71 73 69 58 53 56 59 61 69 72 64 56 55 57 59 60 60 60 58 58 62 66 69 69 70 71 71 70 70 69 69 72 74 72 70
48 54 60 61 58 53 44 37 40 46 42 34 35 42 49 50 51 58 64 63 56 50 52 56 56 57 63 67 70 71 70 68 66 65 65 65 63 63 64 64 65 65 63 66 73 75 73 73 73 72 71 72 77 78 74 71 71 73 76 82 80 71 64 60 60 62 61 60 61 61 60 61 66 70 70 69 70 72 72 71 72 72 73 73 71 71
43 47 57 63 57 49 46 43 42 42 38 33 33 39 44 44 42 49 63 69 64 59 57 56 58 64 69 72 74 77 74 70 70 70 70 71 71 70 71 70 69 68 66 67 72 72 69 70 73 75 76 76 75 76 77 77 77 79 81 82 80 77 72 65 62 62 62 60 61 62 62 63 65 68 70 70 69 71 72 72 73 73 73 70 69 70
35 39 50 57 53 49 48 43 38 40 40 38 38 39 40 39 37 44 58 67 67 65 61 60 64 69 71 73 77 81 78 74 76 77 76 78 80 76 74 73 72 71 70 69 72 73 71 71 73 74 76 78 77 77 78 78 78 79 80 78 78 79 77 71 67 66 66 66 66 66 65 65 64 66 69 69 69 69 70 70 70 71 71 69 67 67
36 43 50 50 48 49 49 42 38 40 40 38 37 36 33 33 34 39 49 57 62 63 61 61 64 67 69 73 76 79 81 79 80 82 81 83 85 82 79 77 75 73 72 72 73 75 74 73 73 73 74 76 76 76 77 77 78 79 78 78 78 77 76 75 73 71 70 70 69 68 66 66 67 67 66 67 68 67 64 64 64 65 67 68 68 67
39 47 49 46 46 46 43 39 40 43 39 34 33 34 35 39 43 46 51 56 60 62 60 58 59 61 66 72 74 77 82 82 80 81 82 83 85 85 82 81 78 73 74 75 75 75 75 75 74 73 74 75 76 76 77 76 75 75 75 76 77 76 76 75 75 74 72 68 65 65 64 64 66 66 62 63 65 65 65 64 62 60 62 64 65 66
46 49 45 46 51 48 40 39 43 46 44 38 38 42 46 47 48 49 53 58 63 65 64 63 61 59 61 68 72 76 83 83 79 79 82 84 86 86 84 83 80 75 74 75 74 74 75 76 75 75 75 76 76 76 74 70 67 69 71 72 73 72 71 72 73 72 70 67 67 68 67 64 64 65 63 62 62 63 66 68 67 64 63 63 65 67
47 48 42 44 49 45 39 39 42 48 49 45 43 46 46 46 49 52 54 58 63 66 66 67 69 67 63 64 68 72 78 80 77 76 79 82 84 85 85 84 82 79 77 74 71 72 72 72 72 73 74 75 74 72 69 66 64 65 66 68 71 71 71 72 72 70 68 68 72 77 76 71 71 72 71 69 68 66 64 64 67 69 69 68 70 72
Wind_Speed
11 10 12 13 14 16 17 17 16 14 8 8 10 10 12 11 9 11 9 5 4 7 9 11 11 11 9 8 7 8 10 10 11 12 12 13 14 15 16 16 17 16 15 18 24 26 27 26 25 24 23 24 25 25 25 27 27 28 27 26 26 26 25 25 24 24 24 23 22 21 20 19 18 17 16 16 15 14 14 13 12 12 12 12 12 12
12 13 15 16 16 15 16 18 17 16 13 9 9 9 10 12 10 10 7 5 4 7 9 10 11 12 11 11 9 7 10 10 11 13 13 15 15 14 16 18 16 14 13 16 21 24 27 27 26 25 23 25 26 25 26 27 28 28 28 26 26 27 26 25 26 25 24 23 22 21 20 19 18 17 17 16 16 15 14 13 13 13 12 12 12 13
13 15 17 17 16 15 14 16 17 17 15 11 9 9 9 10 10 11 8 6 6 6 8 10 11 11 11 11 9 8 10 10 10 12 14 15 16 15 16 16 16 15 14 16 19 22 26 27 27 26 24 25 27 26 26 26 27 28 27 26 25 25 26 27 27 25 24 23 21 20 19 18 17 16 16 15 14 15 15 14 14 14 13 13 13 14
12 13 18 18 16 17 15 14 16 15 13 11 11 10 10 10 9 8 8 8 6 6 9 10 10 10 10 11 11 11 11 10 10 12 13 14 15 15 15 15 15 17 16 17 18 20 23 26 27 27 25 26 26 26 27 27 27 27 27 27 26 25 26 27 27 25 24 22 21 19 17 16 15 14 14 14 14 15 15 15 14 15 15 15 14 15
13 9 14 19 18 18 17 15 16 13 10 13 14 13 11 12 12 9 5 5 5 7 10 10 9 10 11 12 13 11 11 11 10 11 13 13 14 14 14 14 16 17 17 17 18 19 20 23 26 27 26 25 26 27 27 28 28 27 27 28 27 26 26 26 26 26 23 22 22 20 17 15 14 13 14 15 16 16 16 16 16 15 15 16 15 15
16 9 10 19 19 18 18 16 16 14 10 13 16 18 16 13 13 12 8 6 6 8 9 10 10 10 11 14 13 9 9 11 9 10 13 13 13 13 14 15 16 17 17 17 18 19 19 22 25 26 26 26 27 27 27 28 28 27 27 28 27 26 25 25 25 26 24 22 23 22 20 18 17 17 17 17 17 17 17 17 17 16 15 16 17 16
13 13 11 17 19 19 19 15 16 16 11 10 12 16 18 16 15 13 11 9 7 8 6 8 9 9 9 13 11 8 9 10 10 11 13 13 13 13 13 14 15 16 17 17 18 19 19 21 24 26 28 28 28 28 27 27 27 28 27 27 28 26 25 25 25 26 25 23 23 23 22 21 20 19 19 18 17 17 17 16 16 16 16 17 18 17
13 17 15 17 18 17 16 14 16 17 12 10 9 11 16 18 18 15 12 10 8 8 7 8 10 9 9 11 9 9 10 11 11 12 13 13 14 15 15 16 16 17 18 17 18 19 20 22 24 27 29 30 28 27 27 26 27 28 28 27 28 27 25 24 25 27 27 25 24 24 23 22 21 20 18 17 17 17 16 16 16 16 15 17 19 19
15 20 19 19 17 13 13 14 16 18 14 10 7 7 10 14 16 14 11 10 9 9 10 11 12 10 10 10 10 11 12 12 12 13 14 15 16 16 16 17 18 18 19 19 19 20 21 23 27 29 30 29 28 27 27 28 27 28 28 27 27 27 25 25 25 27 28 26 25 24 23 22 21 20 17 16 16 17 16 16 16 16 16 16 18 19
12 17 19 18 15 12 13 14 16 18 15 11 8 6 7 10 12 12 10 9 9 12 13 13 13 11 10 10 11 12 13 13 13 12 14 15 16 17 17 18 19 18 18 19 20 20 22 26 29 29 28 28 28 28 28 27 26 26 27 26 27 28 26 26 27 27 28 27 25 23 23 23 21 19 18 17 16 17 17 17 16 17 16 16 16 18
9 11 15 15 14 13 12 12 15 17 16 13 10 8 8 9 9 9 9 8 10 12 14 15 16 13 11 10 10 11 12 13 13 12 13 14 16 17 17 17 18 17 17 18 19 20 22 26 29 28 27 28 28 28 28 27 26 26 27 28 28 28 27 26 27 27 27 27 26 25 24 24 23 20 19 19 18 18 18 18 17 17 16 16 16 16
12 11 12 14 15 15 13 12 12 15 16 13 10 9 8 7 7 7 7 8 11 11 10 14 17 16 14 10 9 12 14 15 13 13 13 14 16 17 16 16 17 17 17 17 18 18 19 22 24 26 27 28 28 28 28 28 27 27 27 28 28 29 27 26 27 28 27 27 26 25 25 24 24 22 21 21 21 20 19 18 18 17 16 16 17 16
16 12 12 14 17 17 14 12 10 12 14 13 10 10 9 7 7 8 9 9 11 10 9 11 15 16 14 11 10 12 14 15 14 13 14 14 15 16 16 16 15 16 17 17 17 17 18 18 19 23 27 28 28 29 30 30 29 28 28 28 29 30 29 29 29 29 28 28 27 26 25 25 24 23 23 23 22 20 19 19 19 18 17 17 17 17
13 13 16 16 14 17 18 12 10 11 13 13 11 10 10 8 8 9 9 9 9 9 10 11 10 11 12 10 14 17 14 13 13 12 13 13 13 14 16 16 15 16 17 17 17 17 17 18 18 22 27 28 29 31 32 32 31 30 29 30 30 30 31 31 30 29 29 29 28 27 26 25 24 24 24 24 22 21 20 19 20 20 19 18 19 19
14 12 17 19 12 16 21 16 12 11 11 14 12 10 10 8 8 7 7 8 9 8 11 12 8 8 7 3 7 15 15 15 14 14 14 14 14 13 14 15 15 17 17 16 17 18 19 20 20 23 26 28 30 32 32 32 31 31 30 32 32 31 32 33 31 30 30 30 29 29 28 26 25 24 25 24 23 22 21 20 20 20 20 19 19 19
17 11 13 20 15 16 22 18 15 13 11 12 12 11 11 9 8 5 4 6 6 6 9 11 8 6 3 1 1 6 10 14 15 15 15 16 16 15 14 15 15 15 17 17 17 19 20 20 21 24 27 28 30 31 32 32 32 32 31 32 33 33 33 33 32 32 32 31 30 31 30 28 26 26 26 25 23 23 22 21 20 21 21 20 19 18
13 9 11 20 19 18 21 19 18 15 9 9 12 13 11 10 9 7 5 4 4 7 7 8 9 7 5 5 7 9 9 11 13 13 14 14 14 14 13 13 14 15 16 17 17 18 19 20 21 24 27 28 30 31 33 34 35 34 32 32 33 33 33 33 33 33 32 32 32 31 31 30 28 29 29 26 24 23 22 21 21 21 21 21 21 19
9 8 11 19 21 19 19 20 20 18 12 8 10 13 10 10 10 8 7 6 7 9 7 9 12 10 8 6 8 14 15 12 13 13 13 13 12 13 12 13 14 15 16 17 18 17 18 19 20 24 28 30 32 33 34 36 35 35 34 33 34 34 35 35 35 34 33 34 32 31 32 32 30 31 30 26 24 23 22 22 22 21 22 22 22 20
8 7 9 16 20 18 17 17 17 19 19 12 8 11 11 10 10 8 7 8 9 9 7 10 12 10 9 6 4 11 16 15 15 14 13 14 13 13 13 14 15 15 14 15 16 15 17 19 21 24 28 31 33 33 34 35 34 34 34 34 34 36 37 36 34 34 34 34 33 32 33 34 33 32 29 26 25 24 24 25 24 23 23 22 22 22
6 7 6 13 18 16 15 14 12 15 18 15 10 10 10 8 8 9 8 7 8 8 7 9 10 8 8 9 8 9 10 12 13 13 13 14 14 13 13 13 14 14 13 14 15 16 18 19 22 26 29 30 31 31 31 32 33 34 34 34 34 34 34 34 33 33 33 34 33 32 32 33 34 32 29 27 27 26 26 26 25 24 24 23 22 22
5 8 4 10 17 16 12 12 14 15 15 14 12 12 11 9 6 7 9 9 8 7 6 6 7 4 1 5 11 13 12 12 12 12 12 13 14 14 13 13 13 13 14 15 15 16 18 19 21 26 28 28 28 28 28 30 32 33 32 33 34 33 33 34 35 33 33 33 33 32 32 33 33 33 31 29 29 28 27 27 26 26 24 23 23 23
4 8 6 7 12 12 12 13 17 17 16 15 12 12 12 11 9 8 9 10 9 8 7 6 6 3 3 3 5 7 9 11 12 12 11 12 13 12 12 12 12 12 13 14 14 15 16 16 17 21 24 25 26 28 29 30 31 31 32 33 34 34 34 35 36 35 33 33 33 34 34 34 33 33 33 31 30 30 29 28 28 28 26 25 25 25
2 5 8 8 8 10 12 15 18 19 19 17 14 13 13 12 11 9 7 8 8 9 8 7 7 3 4 4 2 2 4 6 8 10 9 10 11 10 10 10 9 9 10 11 11 12 12 12 14 17 20 23 25 27 29 29 30 32 33 33 33 34 35 35 35 35 34 33 34 35 34 33 33 33 33 33 32 32 31 30 29 28 28 28 27 26
2 5 8 8 7 7 8 12 15 18 18 17 15 14 14 14 13 10 8 6 7 9 9 7 8 4 4 4 3 3 5 5 5 7 7 7 6 7 8 6 4 6 7 8 10 10 10 11 12 14 16 19 22 25 27 28 29 31 33 33 33 35 36 35 34 34 34 34 35 35 33 33 32 32 33 33 33 33 33 31 29 29 30 30 29 28
4 8 10 9 7 7 8 9 13 16 15 12 13 17 18 18 18 14 10 8 7 9 10 8 7 3 4 4 3 3 5 5 3 4 4 4 3 3 4 2 3 5 6 7 9 9 11 12 12 13 13 15 20 24 25 27 28 29 31 33 34 34 35 35 34 33 34 34 34 34 34 34 34 33 34 34 34 33 33 31 30 30 30 31 31 30
3 6 10 11 10 11 11 9 8 11 13 11 12 18 20 21 21 15 10 10 8 9 10 9 6 3 7 5 5 5 6 5 3 2 2 2 3 2 1 0 2 4 5 7 9 10 11 11 12 12 12 15 20 23 24 25 27 27 28 30 31 31 32 33 33 34 34 33 33 34 35 35 35 35 35 35 34 33 32 33 32 31 31 31 31 31
4 4 5 5 4 4 2 2 3 2 11 16 16 16 16 19 21 16 11 10 8 8 10 10 8 4 7 8 8 7 6 3 2 2 2 1 0 1 0 1 1 3 5 7 8 9 11 11 12 13 13 15 19 22 23 25 26 26 27 28 29 29 29 31 33 33 34 33 33 34 35 36 36 36 36 35 34 33 32 33 34 33 32 31 31 31
4 5 4 2 2 2 4 5 6 4 6 14 16 16 15 17 18 16 14 11 8 8 9 10 12 11 9 9 8 6 4 2 2 4 4 2 4 4 3 2 4 4 4 7 9 10 11 12 12 13 13 15 19 21 23 24 26 26 26 27 28 28 29 30 32 33 33 33 32 34 36 36 35 35 35 35 33 33 33 34 34 34 32 31 30 31
3 4 3 2 2 1 2 3 3 2 1 3 8 12 13 15 16 16 15 13 11 9 7 6 10 13 12 11 10 7 6 6 7 8 9 8 9 8 7 7 9 8 4 5 9 10 11 11 12 12 13 14 17 21 23 24 25 26 27 27 28 30 30 30 31 33 33 33 33 34 34 33 32 32 33 33 33 34 34 34 33 33 32 31 31 30
4 0 2 2 4 2 2 1 1 1 1 2 5 7 8 11 13 13 14 15 13 11 9 8 8 9 9 10 10 10 9 9 10 10 11 13 14 14 13 14 14 12 10 6 4 9 10 10 11 12 13 13 15 19 22 23 24 26 27 27 28 29 30 30 31 32 32 33 33 31 30 31 31 31 32 33 34 34 34 33 33 32 32 32 31 29
4 1 2 4 4 4 4 3 2 3 4 5 8 8 9 10 11 12 12 12 12 12 14 14 13 10 7 7 9 9 8 9 9 10 11 12 14 16 16 16 15 13 13 11 5 6 7 8 10 11 12 14 15 19 21 23 24 25 27 28 29 30 30 30 30 30 32 32 30 28 29 30 31 31 32 33 33 32 32 32 31 31 31 31 30 29
4 1 0 3 5 5 5 5 5 4 6 10 12 12 12 12 12 12 11 11 12 13 14 16 14 10 8 9 11 11 11 13 14 13 13 12 14 15 16 16 16 14 14 13 8 6 6 7 9 11 13 14 16 19 22 23 23 24 26 28 29 29 29 30 30 30 31 30 28 28 29 29 30 30 31 32 32 31 31 30 30 29 30 30 31 29
4 3 1 2 5 4 5 5 4 3 7 11 12 14 15 14 13 12 12 13 14 13 12 13 11 8 8 9 10 10 11 13 13 12 12 12 13 15 16 16 16 16 15 14 9 6 6 6 7 9 11 12 15 20 22 23 24 25 27 27 26 26 28 30 31 29 28 28 27 28 28 28 29 30 30 30 30 29 29 30 31 31 30 31 30 29
3 4 3 2 4 4 4 2 3 6 9 6 3 7 14 15 15 16 15 14 14 13 11 11 9 8 8 8 8 8 9 10 10 10 10 10 10 12 14 15 15 15 15 13 11 9 7 5 5 7 9 11 15 18 19 22 25 25 25 25 25 27 29 30 31 28 27 28 29 29 29 29 29 30 29 29 29 29 29 31 32 32 31 30 29 30
3 4 4 3 4 5 2 2 6 8 5 2 5 3 5 9 11 12 11 10 10 11 12 12 11 10 9 9 9 9 10 11 12 12 12 12 11 11 13 14 14 14 14 12 11 10 7 5 5 6 8 10 12 14 16 19 22 22 22 24 27 29 29 29 29 28 27 29 30 30 30 30 31 30 29 29 28 29 30 31 32 32 31 29 29 30
5 4 4 4 5 5 4 6 8 3 2 3 3 4 5 6 6 7 9 11 10 7 7 9 9 9 9 10 9 9 10 11 12 12 12 13 14 14 14 14 14 13 12 9 8 7 6 6 7 8 8 9 10 12 14 16 18 20 21 24 26 27 28 28 28 28 28 28 30 31 31 31 31 30 29 29 28 30 31 32 32 31 30 29 27 28
8 5 4 5 6 6 6 7 6 3 3 5 5 4 4 5 5 3 7 8 7 4 2 4 6 7 9 9 7 7 9 9 9 11 13 16 17 17 15 13 11 10 8 7 7 8 8 9 10 10 10 10 10 12 12 13 16 18 20 22 24 25 26 26 27 28 28 28 30 30 29 29 29 28 28 27 28 30 31 31 30 29 27 27 26 27
9 7 5 5 5 6 6 7 7 7 7 6 6 7 5 4 4 2 3 4 7 7 2 3 4 6 8 7 6 6 7 7 8 8 8 11 12 11 9 8 6 6 6 6 7 8 9 9 10 11 11 11 11 11 11 12 15 17 19 20 22 23 24 26 28 29 28 27 26 26 25 26 26 26 26 27 29 30 29 28 27 26 26 26 26 27
11 8 6 6 6 6 7 8 7 7 3 2 6 8 6 3 4 3 4 5 6 7 2 3 4 6 7 6 6 5 4 7 8 4 5 10 10 7 6 5 4 5 5 5 6 7 8 9 10 11 11 11 10 9 10 12 14 16 18 19 20 21 23 25 27 27 25 23 22 22 23 24 25 26 28 29 29 28 26 25 24 24 25 26 26 26
11 7 6 7 8 7 8 8 6 5 1 4 4 5 6 3 2 4 6 4 5 5 1 2 4 5 7 7 6 4 5 6 5 4 8 11 10 7 6 6 6 6 6 6 7 7 8 8 7 8 8 7 6 6 8 12 13 15 16 17 19 20 21 22 22 22 22 22 22 23 24 25 27 28 28 28 27 26 25 25 24 24 25 25 25 24
9 8 7 8 8 8 9 8 6 5 1 2 3 3 3 0 3 4 3 2 4 2 2 2 4 5 6 7 6 4 5 7 9 11 11 11 10 8 6 6 7 6 6 7 7 7 7 5 4 5 4 2 2 4 7 10 12 13 14 15 17 18 18 18 19 20 21 22 23 23 24 24 25 26 25 24 23 23 24 24 24 24 25 24 24 24
8 8 8 8 8 8 8 8 7 6 1 2 4 4 2 3 3 1 2 2 1 2 2 3 4 4 5 7 7 6 8 10 14 15 13 11 10 9 7 7 7 6 6 7 6 6 6 4 4 5 5 5 3 3 6 9 11 12 13 14 15 16 16 15 16 18 19 21 22 22 22 22 22 22 22 22 22 22 23 24 23 24 25 24 24 24
5 6 8 9 8 7 8 8 8 5 4 7 6 4 3 3 3 5 6 5 3 5 5 4 3 3 5 7 8 9 11 12 13 13 11 11 10 8 7 7 7 6 6 6 6 7 7 5 5 6 7 7 6 3 5 9 10 10 11 11 9 10 12 12 13 14 16 18 19 20 19 19 20 20 20 21 23 23 24 24 24 24 24 24 23 23
6 5 6 6 5 5 9 8 3 2 4 6 5 3 3 6 8 9 9 7 5 6 5 5 5 5 6 8 9 10 11 10 11 11 10 10 9 7 6 5 5 5 5 5 6 7 6 5 4 5 6 8 9 7 2 5 8 8 8 7 5 5 6 8 9 11 13 14 16 17 17 17 18 19 20 21 22 23 23 23 24 23 23 23 23 23
3 1 2 3 3 4 7 6 7 10 9 6 6 6 9 11 11 11 12 10 8 6 5 5 7 7 6 7 8 9 8 8 8 8 8 7 6 5 4 4 4 4 3 3 4 4 3 3 4 5 6 7 9 10 8 5 5 7 7 6 4 4 5 7 8 9 11 12 13 15 16 15 16 17 19 19 20 21 22 22 22 22 22 24 24 24
3 0 1 3 5 7 9 10 10 12 13 11 9 9 10 11 11 11 11 10 9 8 7 7 7 7 5 5 6 7 7 6 6 6 5 5 4 3 2 2 1 2 2 1 2 2 2 4 5 6 7 8 8 9 9 9 8 8 7 5 3 3 4 6 8 9 10 11 12 13 15 15 15 16 17 18 19 19 20 20 21 21 22 24 25 25
6 4 3 5 7 7 7 8 9 12 13 13 12 12 12 13 11 9 9 9 9 9 8 8 7 5 4 3 4 6 6 4 4 5 3 2 2 1 1 1 1 2 2 2 3 3 3 4 5 6 8 9 9 9 9 9 9 8 6 4 3 3 3 5 7 8 9 9 10 11 12 13 14 14 15 17 18 18 19 20 21 22 23 24 24 24
3 1 4 8 9 9 9 10 12 15 17 15 14 12 12 12 12 11 10 11 11 10 9 8 7 4 2 2 2 5 5 4 4 5 3 1 2 2 2 2 3 2 3 4 5 5 5 5 4 5 7 8 9 10 10 10 10 8 7 7 5 4 4 5 6 7 8 8 8 9 10 11 11 12 12 14 15 17 18 19 21 22 22 23 24 23
5 5 6 8 9 9 11 12 13 14 16 16 14 11 9 10 12 13 12 12 14 13 11 9 8 4 0 2 2 2 3 4 5 5 3 2 2 3 3 3 3 3 5 6 7 7 7 6 6 6 8 9 9 10 11 11 11 10 9 8 7 6 6 6 6 7 7 7 7 7 8 8 9 10 11 12 13 15 16 17 19 20 20 22 24 25
9 8 8 8 9 9 10 10 9 10 11 11 10 11 13 13 13 14 14 13 14 15 12 10 9 5 2 3 2 1 2 2 3 3 3 3 4 4 5 4 3 4 7 7 8 8 9 9 8 8 8 9 9 10 10 10 10 10 9 8 7 6 6 6 7 7 7 6 6 6 6 6 7 7 9 10 11 12 14 15 19 21 22 22 22 24
9 10 9 8 9 11 11 10 9 9 10 12 13 15 15 14 13 15 15 13 13 15 14 11 10 6 3 4 3 2 2 2 2 3 4 5 5 5 6 7 6 6 7 8 8 9 10 10 10 10 10 9 9 9 10 10 10 10 9 9 8 6 6 6 5 6 6 6 5 5 4 3 3 3 4 6 7 9 10 12 15 19 21 23 24 25
Wind_Direction
189 202 204 210 212 205 207 211 219 224 224 242 235 223 230 231 224 225 217 180 208 248 238 236 247 248 246 243 228 204 197 203 209 210 206 201 199 197 196 196 195 195 190 181 182 184 184 185 185 186 188 189 191 190 189 189 189 191 190 188 190 191 189 188 190 193 196 198 200 202 206 207 208 210 211 213 215 216 215 213 209 208 208 210 212 212
193 215 214 208 212 210 208 211 218 226 223 229 237 230 231 234 233 230 216 171 205 249 246 243 253 255 250 249 246 214 196 203 208 209 208 204 203 201 200 198 194 192 187 180 182 184 186 186 185 185 188 189 190 189 188 189 190 193 192 190 191 191 189 190 192 193 196 199 199 200 202 205 205 205 209 211 213 215 214 211 208 208 209 211 212 212
203 221 216 206 209 212 213 212 213 221 224 225 234 239 239 232 233 234 221 210 229 248 250 249 258 260 255 252 245 217 203 206 210 213 210 206 206 204 201 198 192 187 185 185 184 185 187 187 185 185 188 190 189 188 189 190 191 193 194 193 192 191 191 194 195 194 196 198 199 199 200 202 204 205 208 211 212 213 213 211 209 211 211 211 212 212
206 220 214 206 205 209 210 206 205 213 222 227 231 234 237 233 233 233 208 203 227 247 258 265 269 265 258 249 241 228 214 210 212 216 215 210 208 207 203 198 192 188 186 187 187 187 186 186 187 187 188 190 189 189 190 191 192 193 195 195 193 193 193 196 197 195 197 197 197 200 200 201 206 208 208 210 212 212 213 213 212 212 212 212 212 212
213 210 202 205 204 203 202 198 202 212 221 226 230 232 235 233 236 243 214 197 236 243 248 263 270 263 250 241 239 226 207 207 211 211 214 212 209 209 205 199 196 192 188 187 189 189 187 188 189 189 189 189 190 191 191 192 194 195 197 196 195 195 196 197 197 196 196 197 199 201 200 200 205 210 209 209 211 210 211 213 213 212 210 210 211 212
221 205 186 202 202 199 205 207 208 213 224 226 225 229 236 239 239 244 245 247 256 244 232 239 255 258 243 241 241 218 193 198 198 202 210 208 205 206 204 200 197 196 192 189 191 191 190 189 188 188 190 191 192 193 193 193 196 198 198 197 196 197 198 199 198 195 193 196 199 199 198 198 201 207 210 209 209 209 209 212 212 210 208 208 210 212
223 208 189 200 199 199 211 218 210 209 224 231 219 221 229 237 241 240 241 243 249 253 234 220 243 259 249 244 235 203 196 197 188 198 207 204 204 203 203 202 197 196 194 191 193 194 192 190 188 190 192 194 195 194 193 194 196 198 198 196 197 198 199 199 197 195 193 195 197 199 200 203 206 210 212 211 211 211 210 211 210 208 208 207 209 212
212 204 190 195 199 202 213 217 207 204 218 230 217 218 221 225 233 237 241 244 250 262 250 219 235 258 256 247 231 205 205 199 189 197 203 202 204 203 204 205 200 198 195 192 193 194 195 193 192 193 193 195 196 192 191 193 195 197 197 195 195 197 199 198 197 196 195 196 198 201 205 209 213 216 214 210 211 212 211 209 208 206 206 206 209 211
199 202 192 191 199 204 211 212 203 202 216 227 213 219 223 220 228 233 241 247 249 255 250 230 230 247 250 242 239 228 220 213 205 204 206 205 203 204 206 206 203 201 198 195 194 194 195 196 195 195 194 195 194 191 192 193 193 194 195 194 194 196 197 197 195 195 196 199 200 203 206 211 215 217 216 211 209 210 209 209 207 206 206 206 209 212
195 206 200 194 203 209 208 209 204 201 213 222 203 202 221 220 225 229 235 244 245 246 246 233 227 240 251 239 229 224 219 222 223 216 213 209 203 203 206 207 205 202 200 200 198 195 195 197 198 196 194 194 192 192 193 192 192 192 192 193 194 195 196 196 195 194 197 200 201 204 207 210 212 211 211 210 207 205 205 208 208 208 209 210 212 213
198 201 207 203 210 214 206 205 207 204 209 214 205 203 216 217 220 226 229 235 241 242 239 232 229 238 252 243 226 223 218 219 227 225 216 209 204 203 206 207 205 201 201 203 201 199 196 197 197 195 194 194 193 192 191 190 191 191 191 193 194 196 196 196 196 196 199 201 202 205 208 210 210 206 205 206 206 204 202 206 208 209 212 214 217 217
205 191 204 210 213 214 211 209 207 204 206 212 208 206 216 214 211 222 219 219 236 241 231 226 227 235 245 242 229 230 224 216 224 229 219 207 202 203 205 206 204 201 201 201 203 201 197 195 194 194 194 193 192 192 191 191 191 191 192 192 193 196 196 198 199 198 201 204 204 207 209 210 210 207 205 207 208 206 203 205 207 208 211 214 218 219
212 204 200 204 208 207 208 208 197 195 202 208 206 203 210 204 194 209 210 211 231 237 230 224 222 230 242 242 234 236 231 222 223 229 227 218 206 201 202 204 202 201 200 199 201 201 196 195 192 192 193 191 191 192 191 191 190 190 192 192 193 195 196 201 202 199 202 207 208 208 209 210 210 209 209 210 211 209 207 206 206 206 209 211 215 217
210 210 204 202 202 201 205 205 190 191 197 201 202 201 204 199 193 206 210 215 231 230 223 217 217 233 247 244 230 229 229 222 218 222 228 227 217 204 200 203 200 199 200 199 200 200 197 195 192 192 192 190 191 192 192 192 190 190 191 191 193 195 195 199 201 198 202 208 209 210 212 210 209 211 212 213 214 213 211 210 208 208 209 212 214 216
204 208 203 200 191 188 201 207 197 190 193 200 204 207 212 213 210 211 210 217 228 225 208 198 201 232 238 230 220 219 217 216 221 227 228 227 224 213 202 201 199 198 200 199 200 201 199 195 191 192 191 190 192 192 192 192 190 190 190 190 192 192 193 195 198 198 201 206 210 212 214 212 210 213 215 215 215 214 213 212 210 210 211 215 217 218
212 217 194 194 192 185 194 203 200 192 194 197 201 211 216 216 223 233 246 246 247 243 212 195 205 231 223 80 156 196 201 208 218 223 221 220 220 216 208 201 198 199 200 199 200 201 200 196 192 191 191 191 192 192 192 191 191 191 190 190 191 192 192 194 196 198 201 205 209 211 214 213 211 215 217 214 212 213 213 212 211 211 213 216 218 219
213 217 175 184 194 191 190 195 196 196 196 188 196 213 212 209 224 238 249 263 268 253 226 202 218 232 248 257 221 202 200 203 209 213 213 214 212 210 208 201 198 199 199 199 200 200 198 196 194 193 192 191 191 192 193 192 191 190 190 190 191 192 193 194 195 198 200 203 207 209 211 212 211 215 216 213 211 212 212 212 213 213 214 216 218 219
211 207 166 178 192 190 188 192 196 202 207 194 195 204 199 204 226 239 237 226 224 239 232 217 227 227 228 241 211 206 211 206 205 210 212 211 206 205 204 201 201 201 200 201 201 199 197 196 197 196 195 193 193 192 193 192 190 189 190 190 191 191 193 194 195 197 198 200 204 207 209 210 211 215 216 212 212 211 210 212 213 214 215 216 217 218
214 209 166 178 190 182 181 192 197 202 211 216 205 191 188 201 210 211 227 225 219 233 236 227 235 235 226 227 194 201 211 212 209 207 210 210 205 205 205 202 204 203 202 202 201 199 198 199 199 198 198 197 195 193 192 191 190 190 192 192 193 194 194 195 195 196 197 199 202 205 207 208 210 214 215 212 211 209 210 212 212 213 216 215 215 215
221 224 179 178 186 175 177 197 199 194 203 215 216 198 195 208 208 201 212 225 227 235 238 229 230 233 231 228 223 211 205 208 208 204 211 215 210 208 209 206 202 200 202 203 201 200 200 201 201 200 201 200 196 194 192 191 191 193 194 193 195 196 195 195 196 196 197 199 202 203 205 206 207 210 212 210 209 209 211 213 212 214 215 213 213 214
224 230 207 174 183 181 183 198 200 191 190 200 207 202 198 202 212 212 211 218 231 237 238 238 232 227 211 220 225 224 216 212 212 210 212 216 216 213 212 215 207 198 200 202 201 201 201 202 203 202 202 202 198 195 193 193 195 196 196 195 196 195 194 195 197 197 198 200 202 203 203 204 205 207 208 209 209 209 211 212 212 214 215 213 213 213
217 223 217 180 181 193 196 193 199 199 191 192 201 200 199 199 203 209 209 211 224 237 238 245 250 240 92 122 198 210 216 216 218 224 220 214 219 218 214 218 212 200 202 204 202 204 203 202 203 202 201 201 200 197 195 195 195 196 197 197 197 196 196 197 197 197 198 199 201 203 203 203 204 205 206 208 209 210 211 211 211 212 212 213 214 214
294 232 219 203 189 204 203 188 197 204 195 195 204 202 200 204 205 208 207 201 209 226 234 243 258 257 104 122 161 193 225 220 212 220 224 221 223 222 220 222 208 194 201 205 205 209 208 203 201 202 201 200 201 201 199 197 196 196 197 198 198 199 199 198 197 197 197 198 202 204 204 203 204 204 205 206 208 210 212 212 211 210 210 213 215 215
260 222 218 217 199 203 200 183 195 207 201 201 206 204 206 209 208 212 220 215 211 216 216 224 242 231 129 155 227 242 223 210 193 203 217 226 223 215 225 232 193 176 190 200 202 204 205 201 197 201 202 199 201 203 201 200 200 199 198 198 198 199 200 199 197 196 196 198 202 203 202 204 205 205 206 207 209 211 211 211 210 210 210 212 214 215
219 208 208 213 197 185 187 185 195 204 206 211 208 204 210 211 208 212 223 230 234 222 213 218 232 203 120 150 199 192 188 187 187 195 195 207 221 217 229 228 158 172 189 197 197 197 200 198 196 200 201 197 199 202 202 202 203 203 201 200 199 199 198 197 196 196 196 199 201 201 201 203 204 206 207 208 210 211 210 211 211 210 210 211 214 214
249 214 208 211 207 198 193 189 196 199 200 209 211 205 208 210 208 209 217 222 226 225 221 225 227 134 112 144 178 173 177 183 191 197 173 193 227 228 225 206 163 180 191 194 193 195 200 201 200 200 198 196 199 201 203 204 204 205 205 204 203 200 197 195 196 196 197 199 201 201 202 203 204 206 207 209 210 210 211 211 212 211 211 211 212 212
252 220 223 236 234 224 189 92 3 263 200 199 203 202 203 209 209 208 216 219 216 223 228 228 231 203 150 161 177 176 175 176 194 259 254 219 335 21 106 312 252 207 194 192 193 194 196 201 203 201 198 199 201 202 203 205 206 206 206 206 205 202 198 196 196 196 197 199 200 201 203 203 204 205 207 208 209 209 210 212 212 212 212 212 212 211
238 198 216 272 348 3 13 23 9 335 208 196 197 196 197 204 209 213 219 219 211 223 228 214 219 229 206 176 173 171 178 228 272 276 276 328 3 356 353 330 304 284 216 194 193 192 193 198 202 202 202 203 204 205 205 206 207 207 206 205 203 202 200 198 197 198 198 199 200 201 203 203 203 204 205 206 207 207 209 210 211 212 212 211 211 212
262 199 188 244 286 326 343 359 6 347 241 191 194 194 192 197 208 219 226 226 224 233 242 215 212 227 230 221 221 226 242 264 275 280 287 300 307 306 305 299 299 306 290 208 192 190 193 197 199 203 206 208 209 209 208 209 208 207 206 204 202 202 201 199 198 198 199 199 201 202 202 201 201 202 203 204 205 206 207 209 210 211 211 211 211 212
303 240 80 298 275 237 232 293 329 285 232 222 215 206 199 203 212 220 227 231 237 246 258 260 249 243 240 246 258 263 268 274 282 288 290 292 294 295 296 293 293 300 306 293 207 188 193 194 196 202 205 208 211 211 210 211 209 207 206 204 202 202 201 199 199 199 200 201 202 201 198 197 198 199 200 202 203 204 205 207 208 209 209 210 210 210
323 53 42 318 274 215 205 217 231 253 256 249 238 226 217 214 214 217 222 226 234 243 251 258 262 256 244 254 272 280 286 288 288 290 291 292 293 295 294 292 293 296 299 297 261 194 191 191 192 198 204 207 210 210 210 211 209 208 207 205 203 202 200 199 200 201 202 203 202 198 194 194 195 196 198 200 202 202 202 204 206 207 208 209 209 210
320 329 45 285 247 206 181 192 218 251 269 259 245 230 223 218 216 217 217 218 222 230 240 247 252 252 248 254 260 262 266 269 269 274 279 281 284 287 289 291 293 292 290 287 265 210 200 203 199 200 207 211 212 211 210 210 209 208 208 207 204 201 199 200 201 201 203 203 200 195 193 192 193 195 198 200 200 200 200 201 204 207 207 208 209 209
310 309 283 239 238 200 158 179 224 249 256 253 242 227 220 217 218 219 217 219 221 222 231 240 246 253 252 251 255 255 256 259 261 265 270 272 274 277 280 282 283 283 284 283 272 242 231 232 217 210 213 215 215 216 213 210 208 209 209 206 202 199 199 201 202 201 200 200 198 195 193 193 194 196 198 198 197 197 198 199 203 206 207 208 208 209
285 281 275 265 246 212 156 150 238 233 231 235 227 217 215 212 216 221 221 219 216 217 233 247 255 260 253 246 253 262 266 270 273 274 275 273 272 275 277 279 281 283 283 282 281 281 274 255 237 231 229 226 225 224 219 214 212 212 208 203 199 199 200 201 202 200 197 196 196 194 193 194 196 197 198 196 194 196 198 201 205 208 208 209 209 211
260 247 250 256 247 243 228 207 223 226 215 120 76 103 195 206 215 222 227 230 227 228 238 247 254 259 260 265 271 275 279 282 283 282 280 277 275 276 279 280 279 278 278 277 279 284 284 266 255 251 245 240 237 231 225 220 217 213 207 202 200 199 199 199 200 200 197 196 196 194 194 196 198 198 198 196 194 197 200 204 207 209 210 211 211 213
248 245 246 241 237 247 248 220 214 202 88 112 121 120 146 170 185 209 228 231 231 234 237 245 259 268 273 280 283 284 289 291 289 285 279 275 273 271 270 274 277 278 281 287 291 294 296 287 277 272 265 256 247 237 229 224 218 212 207 204 201 200 198 197 199 201 200 197 196 196 196 197 198 198 198 197 197 200 203 206 209 209 209 212 214 215
234 243 246 236 230 236 240 232 233 268 277 226 191 148 148 155 149 205 242 216 178 140 171 238 259 272 279 287 295 305 308 300 286 274 269 267 263 258 259 267 276 285 292 302 306 301 296 288 279 275 268 258 249 242 234 223 215 210 207 203 200 199 196 195 197 200 201 200 199 198 198 198 198 198 199 199 200 203 206 208 210 209 208 210 213 215
219 232 237 231 227 229 241 243 240 249 257 231 176 147 132 117 101 61 284 203 136 114 137 230 251 274 283 294 313 323 315 287 264 262 280 288 278 265 264 270 276 284 293 301 303 298 295 291 282 273 265 257 250 241 230 220 210 205 204 203 199 197 196 198 199 200 201 202 202 199 198 198 199 198 198 200 203 206 207 209 209 208 208 210 212 215
210 224 233 239 236 224 230 239 232 232 244 119 142 146 139 135 126 136 246 224 140 113 126 241 259 283 291 304 324 323 290 258 247 253 357 352 342 332 321 313 307 306 306 308 309 306 306 305 294 277 260 248 244 233 218 212 206 201 201 201 200 198 200 204 205 204 204 205 203 200 198 198 198 198 199 202 205 206 206 208 210 209 210 212 215 217
202 211 216 227 230 222 229 237 234 235 221 84 120 137 124 121 166 204 230 207 129 114 102 267 277 295 300 305 312 286 251 252 268 323 355 347 335 330 328 324 324 323 315 312 320 321 313 310 301 280 258 239 233 224 206 200 200 200 198 197 200 203 205 208 209 207 206 204 202 200 198 198 199 201 202 203 204 205 206 207 209 210 211 214 216 218
197 202 207 218 222 222 229 233 238 249 231 144 200 176 108 81 237 226 232 120 126 171 221 240 265 292 297 295 294 268 265 292 304 312 322 323 317 317 326 327 324 322 319 324 332 327 315 318 324 306 299 302 272 232 201 193 195 196 193 193 200 206 209 209 206 203 202 201 201 201 200 200 202 203 203 204 203 204 207 209 210 211 212 214 216 217
198 200 206 219 223 219 221 228 240 241 135 64 283 271 263 250 239 256 328 317 244 262 269 249 261 283 285 285 286 279 283 293 294 295 303 309 310 314 320 323 323 324 332 339 338 329 321 334 350 342 343 345 310 244 199 191 192 191 191 196 203 209 211 210 205 202 199 197 199 202 201 201 202 201 202 203 203 204 208 210 211 212 213 215 216 216
202 206 209 212 216 223 224 222 225 217 82 37 337 279 230 254 312 345 324 299 307 323 312 294 298 313 301 293 290 286 286 285 283 288 295 295 296 302 311 318 320 321 331 340 343 343 342 343 352 356 359 359 344 304 207 191 188 186 186 187 192 200 203 203 200 199 198 197 199 200 201 200 199 199 200 202 202 204 207 208 211 213 213 215 216 217
219 222 227 215 208 221 217 205 209 310 4 15 348 308 317 331 337 339 327 316 319 322 317 312 315 319 312 303 295 291 291 287 282 284 286 283 283 287 291 300 303 304 317 335 343 346 345 348 0 5 9 14 8 359 355 173 172 166 156 140 126 146 173 183 187 191 195 198 199 199 201 202 200 200 202 203 204 207 209 210 212 213 213 215 217 221
199 188 286 267 279 272 249 260 326 323 310 321 340 333 330 330 331 332 328 318 311 316 321 309 306 312 310 301 297 295 292 288 285 282 278 278 282 284 286 293 296 294 300 337 352 352 0 27 36 35 33 32 25 20 26 60 105 109 96 86 96 134 168 180 184 188 193 195 197 199 201 202 202 203 206 206 206 208 210 211 212 212 214 218 221 225
212 178 320 282 289 289 275 273 286 288 287 298 313 318 318 319 322 325 321 313 314 322 317 301 301 308 304 296 304 307 299 290 288 282 274 274 278 276 277 280 292 301 306 11 24 8 32 58 58 59 56 51 46 42 41 48 64 73 68 64 84 118 162 185 187 189 193 194 195 197 198 201 204 206 209 211 212 213 214 214 214 215 217 221 224 226
237 227 225 252 270 274 266 266 278 285 291 302 308 307 305 304 305 308 306 304 309 312 306 299 295 292 298 317 326 318 313 306 298 294 295 311 316 319 337 30 59 34 16 54 56 39 45 58 64 68 66 61 60 60 61 62 66 70 73 75 84 100 135 168 178 180 181 181 183 187 193 199 204 206 210 212 214 217 220 222 224 225 225 227 228 230
257 257 239 246 252 255 259 273 287 291 292 292 288 285 289 292 296 302 306 306 305 297 288 286 281 272 292 5 348 328 334 352 340 323 325 0 339 335 11 50 65 60 53 64 65 61 62 63 66 73 72 69 68 69 69 68 66 66 69 73 80 99 118 137 152 158 163 167 170 176 184 191 196 203 210 213 216 220 224 226 229 231 232 231 231 232
271 274 264 259 259 262 264 267 272 277 278 273 268 271 289 303 308 312 313 312 307 296 280 272 271 261 198 63 39 351 354 10 359 340 345 29 12 352 20 53 74 75 67 66 68 70 74 72 70 73 74 72 70 69 69 67 63 61 62 65 73 91 108 123 131 135 146 157 163 168 176 183 190 200 211 218 222 226 229 230 233 236 238 237 235 236
260 257 257 259 260 259 257 256 259 266 269 272 284 302 312 316 316 313 311 313 313 305 293 280 269 247 148 91 68 52 33 20 13 11 26 38 24 13 25 44 66 79 79 79 79 78 80 81 79 77 74 71 70 71 73 74 69 64 63 64 70 84 102 117 124 127 135 142 144 148 163 177 184 194 209 219 223 228 233 234 235 237 242 244 243 242
252 253 254 257 259 261 266 274 283 285 279 282 293 300 302 304 305 301 300 305 309 305 299 291 275 251 159 108 104 120 119 106 78 65 60 53 41 33 35 39 44 57 69 79 85 86 85 86 87 84 79 76 74 74 77 78 75 71 71 70 72 80 93 104 111 113 113 110 101 100 116 144 161 180 208 225 233 240 246 247 242 241 246 250 252 252